1487984400.69,38374,7.88,72400.5,-14.99,-15.95,-15.95,0,*6E
1487984401.93,38375,7.88,72402.8,-14.99,-15.89,-15.95,0,*62
1487984403.17,38376,7.88,72402.5,-14.99,-15.89,-15.95,0,*61
1487984404.42,38377,7.88,72402.5,-14.99,-15.89,-15.95,0,*60
1487984405.68,38378,7.88,72402.0,-14.99,-15.89,-15.89,0,*62
1487984406.95,38379,7.88,72406.0,-14.99,-15.89,-15.85,0,*6F
1487984408.21,38380,7.88,72406.5,-14.99,-15.89,-15.89,0,*65
1487984409.47,38381,7.88,72400.8,-14.99,-15.89,-15.89,0,*64
1487984410.69,38382,7.88,72404.3,-14.99,-15.95,-15.95,0,*67
1487984411.9,38383,7.88,72406.3,-14.99,-15.95,-15.95,0,*66
1487984413.12,38384,7.88,72406.5,-14.99,-16.03,-15.95,0,*6D
1487984414.36,38385,7.88,72406.0,-14.99,-16.03,-16.17,0,*65
1487984415.6,38386,7.88,72410.8,-14.99,-16.03,-16.09,0,*69
1487984416.81,38387,7.88,72406.0,-14.99,-15.95,-15.95,0,*62
1487984418.05,38388,7.88,72404.3,-15.01,-15.95,-16.03,0,*61
1487984419.26,38389,7.88,72408.0,-14.99,-15.95,-16.03,0,*60
1487984420.5,38390,7.88,72408.5,-14.99,-16.03,-16.09,0,*6E
1487984421.75,38391,7.88,72408.5,-14.99,-16.03,-16.17,0,*60
1487984423.02,38392,7.88,72410.3,-14.99,-16.09,-16.17,0,*69
1487984424.26,38393,7.88,72404.3,-14.99,-15.95,-16.09,0,*61
1487984425.5,38394,7.88,72402.8,-15.01,-15.95,-15.95,0,*60
1487984426.77,38395,7.94,72408.5,-15.01,-15.89,-15.95,0,*6C
1487984428.06,38396,7.88,72406.8,-15.01,-15.85,-15.89,0,*6E
1487984429.35,38397,7.88,72404.0,-15.01,-15.85,-15.85,0,*63
1487984430.62,38398,7.88,72406.3,-14.99,-15.85,-15.89,0,*60
1487984431.89,38399,7.88,72402.8,-15.01,-15.75,-15.85,0,*62
1487984433.16,38400,7.88,72404.5,-15.01,-15.75,-15.85,0,*65
1487984434.42,38401,7.88,72408.8,-14.99,-15.85,-15.85,0,*6B
1487984435.69,38402,7.88,72408.5,-14.99,-15.89,-15.85,0,*64
1487984436.95,38403,7.88,72408.3,-14.99,-15.85,-15.85,0,*69
1487984438.25,38404,7.88,72412.0,-15.01,-15.85,-15.85,0,*6E
1487984439.51,38405,7.88,72412.5,-14.99,-15.85,-15.89,0,*63
1487984440.77,38406,7.88,72410.5,-14.99,-15.89,-15.89,0,*6C
1487984442.04,38407,7.88,72408.5,-14.99,-15.85,-15.89,0,*61
1487984443.33,38408,7.88,72410.0,-15.01,-15.85,-15.89,0,*6E
1487984444.62,38409,7.88,72408.3,-15.01,-15.85,-15.85,0,*63
1487984445.91,38410,7.88,72414.8,-15.01,-15.89,-15.89,0,*6B
1487984447.18,38411,7.88,72418.8,-14.99,-15.85,-15.85,0,*6A
1487984448.47,38412,7.88,72412.8,-15.01,-15.85,-15.89,0,*65
1487984449.76,38413,7.88,72416.8,-15.01,-15.85,-15.85,0,*68
1487984451.03,38414,7.88,72412.8,-14.99,-15.85,-15.89,0,*63
1487984452.32,38415,7.88,72416.5,-15.01,-15.85,-15.85,0,*6E
1487984453.61,38416,7.88,72416.8,-15.01,-15.85,-15.85,0,*6D
1487984454.9,38417,7.88,72416.0,-15.01,-15.85,-15.89,0,*60
1487984456.17,38418,7.88,72416.0,-14.99,-15.85,-15.85,0,*63
1487984457.43,38419,7.88,72416.8,-14.99,-15.85,-15.85,0,*62
1487984458.7,38420,7.88,72416.3,-14.99,-15.89,-15.85,0,*64
1487984459.99,38421,7.88,72418.0,-15.01,-15.89,-15.85,0,*65
1487984461.28,38422,7.88,72414.5,-15.01,-15.89,-15.89,0,*6A
1487984462.57,38423,7.88,72418.5,-15.01,-15.89,-15.89,0,*6B
1487984463.87,38424,7.88,72414.5,-15.01,-15.89,-15.89,0,*6C
1487984465.16,38425,7.88,72412.5,-15.01,-15.85,-15.89,0,*61
1487984466.37,38426,7.88,72412.3,-14.99,-15.95,-16.03,0,*62
1487984467.61,38427,7.88,72414.8,-15.01,-15.95,-15.95,0,*6F
1487984468.85,38428,7.88,72414.3,-15.01,-15.95,-15.95,0,*60
1487984470.09,38429,7.88,72418.3,-15.01,-15.95,-15.95,0,*61
1487984471.31,38430,7.88,72420.5,-14.99,-15.95,-15.95,0,*69
1487984472.52,38431,7.88,72420.5,-14.99,-15.95,-15.95,0,*68
1487984473.79,38432,7.88,72420.5,-15.01,-16.03,-16.09,0,*61
1487984475.09,38433,7.88,72416.3,-15.01,-16.09,-16.09,0,*6A
1487984476.39,38434,7.88,72416.5,-15.01,-16.09,-16.09,0,*6D
1487984477.69,38435,7.88,72418.0,-15.01,-16.17,-16.17,0,*6C
1487984478.97,38436,7.88,72416.3,-15.01,-16.23,-16.31,0,*6C
1487984480.23,38437,7.88,72412.8,-15.01,-16.31,-16.37,0,*68
1487984481.52,38438,7.88,72416.8,-15.01,-16.23,-16.31,0,*62
1487984482.79,38439,7.88,72412.0,-15.03,-16.13,-16.23,0,*61
1487984484.05,38440,7.88,72412.3,-15.03,-16.23,-16.27,0,*68
1487984485.31,38441,7.88,72414.0,-15.03,-16.23,-16.27,0,*69
1487984486.58,38442,7.88,72412.5,-15.03,-16.23,-16.27,0,*6A
1487984487.84,38443,7.88,72408.5,-15.03,-16.23,-16.13,0,*6C
1487984489.13,38444,7.88,72408.0,-15.05,-16.23,-16.13,0,*6D
1487984490.4,38445,7.88,72408.8,-15.03,-16.23,-16.27,0,*6D
1487984491.66,38446,7.88,72406.3,-15.03,-16.27,-16.27,0,*6A
1487984492.93,38447,7.88,72404.8,-15.05,-16.37,-16.27,0,*6C
1487984494.22,38448,7.88,72408.3,-15.05,-16.27,-16.27,0,*62
1487984495.51,38449,7.88,72406.0,-15.05,-16.23,-16.27,0,*67
1487984496.8,38450,7.88,72402.0,-15.05,-16.23,-16.27,0,*6F
1487984498.1,38451,7.88,72402.0,-15.05,-16.13,-16.23,0,*69
1487984499.4,38452,7.88,72406.0,-15.05,-16.13,-16.09,0,*62
1487984500.63,38453,7.88,72400.8,-15.05,-15.99,-15.99,0,*68
1487984501.94,38454,7.88,72402.5,-15.05,-16.09,-16.09,0,*6F
1487984503.23,38455,7.88,72396.3,-15.05,-16.13,-16.13,0,*6E
1487984504.53,38456,7.88,72398.8,-15.05,-16.23,-16.13,0,*6E
1487984505.82,38457,7.88,72396.5,-15.05,-16.13,-16.23,0,*6F
1487984507.12,38458,7.88,72398.0,-15.05,-16.13,-16.13,0,*63
1487984508.42,38459,7.88,72400.0,-15.05,-16.09,-16.09,0,*62
1487984509.72,38460,7.88,72398.3,-15.05,-16.13,-16.09,0,*63
1487984511.03,38461,7.88,72402.5,-15.05,-16.09,-16.09,0,*69
1487984512.26,38462,7.88,72398.5,-15.05,-15.99,-15.99,0,*6A
1487984513.5,38463,7.88,72404.3,-15.05,-15.99,-15.99,0,*6B
1487984514.73,38464,7.88,72404.0,-15.05,-15.99,-15.95,0,*60
1487984515.97,38465,7.88,72402.0,-15.05,-15.99,-15.95,0,*61
1487984517.18,38466,7.88,72406.8,-15.07,-15.99,-15.95,0,*60
1487984518.42,38467,7.88,72400.5,-15.05,-15.99,-15.95,0,*63
1487984519.63,38468,7.88,72404.0,-15.07,-15.99,-15.95,0,*6E
1487984520.87,38469,7.88,72400.8,-15.05,-15.99,-15.95,0,*6D
1487984522.13,38470,7.88,72404.3,-15.05,-15.99,-15.89,0,*68
1487984523.37,38471,7.88,72406.0,-15.05,-15.95,-15.95,0,*68
1487984524.62,38472,7.88,72406.0,-15.05,-15.95,-15.95,0,*6B
1487984525.83,38473,7.88,72400.5,-15.07,-15.95,-15.95,0,*68
1487984527.07,38474,7.88,72404.0,-15.07,-15.89,-15.95,0,*62
1487984528.32,38475,7.88,72402.5,-15.05,-15.95,-15.95,0,*6C
1487984529.59,38476,7.88,72402.3,-15.05,-15.95,-15.89,0,*62
1487984530.8,38477,7.88,72404.0,-15.07,-15.95,-15.95,0,*6C
1487984532.04,38478,7.88,72402.3,-15.07,-15.95,-15.89,0,*6E
1487984533.34,38479,7.88,72402.5,-15.05,-15.89,-15.89,0,*60
1487984534.6,38480,7.88,72406.0,-15.05,-15.95,-15.89,0,*6B
1487984535.87,38481,7.88,72400.3,-15.07,-15.81,-15.81,0,*65
1487984537.09,38482,7.88,72402.0,-15.07,-15.95,-15.75,0,*68
1487984538.33,38483,7.88,72406.0,-15.07,-15.89,-15.95,0,*6A
1487984539.59,38484,7.88,72404.0,-15.05,-15.95,-15.89,0,*6F
1487984540.87,38485,7.88,72408.8,-15.05,-15.89,-15.95,0,*6E
1487984542.16,38486,7.88,72408.0,-15.05,-15.89,-15.89,0,*60
1487984543.43,38487,7.88,72410.3,-15.05,-15.95,-15.89,0,*6C
1487984544.72,38488,7.88,72408.0,-15.05,-15.89,-15.89,0,*6E
1487984546.02,38489,7.88,72412.0,-15.05,-15.89,-15.81,0,*67
1487984547.29,38490,7.88,72414.8,-15.05,-15.89,-15.95,0,*6A
1487984548.59,38491,7.88,72412.3,-15.05,-15.89,-15.89,0,*66
1487984549.88,38492,7.88,72414.3,-15.05,-15.89,-15.89,0,*65
1487984551.12,38493,7.88,72412.3,-15.09,-15.99,-15.99,0,*68
1487984552.35,38494,7.88,72412.0,-15.09,-15.99,-15.99,0,*6F
1487984553.6,38495,7.88,72412.3,-15.05,-15.95,-15.95,0,*62
1487984554.81,38496,7.88,72416.8,-15.07,-15.95,-15.95,0,*63
1487984556.06,38497,7.88,72412.5,-15.05,-15.95,-15.95,0,*60
1487984557.35,38498,7.88,72414.5,-15.05,-15.89,-15.89,0,*6F
1487984558.62,38499,7.88,72412.8,-15.05,-15.95,-15.89,0,*63
1487984559.91,38500,7.88,72414.0,-15.05,-15.89,-15.89,0,*6F
1487984561.21,38501,7.88,72414.0,-15.05,-15.89,-15.89,0,*6E
1487984562.45,38502,7.88,72414.3,-15.07,-15.89,-15.95,0,*62
1487984563.69,38503,7.88,72422.8,-15.07,-15.95,-15.89,0,*63
1487984564.96,38504,7.88,72422.8,-15.07,-15.89,-15.81,0,*61
1487984566.22,38505,7.88,72418.8,-15.07,-16.23,-16.13,0,*6B
1487984567.48,38506,7.88,72414.8,-15.07,-16.23,-16.13,0,*68
1487984568.78,38507,7.88,72418.0,-15.09,-16.27,-16.27,0,*64
1487984570.02,38508,7.88,72412.5,-15.07,-16.41,-16.27,0,*65
1487984571.25,38509,7.88,72414.0,-15.07,-16.51,-16.41,0,*65
1487984572.5,38510,7.88,72410.8,-15.09,-16.55,-16.55,0,*62
1487984573.74,38511,7.88,72410.3,-15.09,-16.55,-16.45,0,*62
1487984574.99,38512,7.88,72406.3,-15.09,-16.55,-16.55,0,*60
1487984576.26,38513,7.88,72404.3,-15.07,-16.65,-16.65,0,*6F
1487984577.53,38514,7.88,72406.3,-15.09,-16.69,-16.59,0,*65
1487984578.77,38515,7.88,72404.3,-15.09,-16.45,-16.45,0,*67
1487984580.01,38516,7.88,72404.5,-15.09,-16.59,-16.55,0,*68
1487984581.25,38517,7.88,72406.5,-15.13,-16.45,-16.45,0,*6E
1487984582.5,38518,7.88,72408.3,-15.13,-16.55,-16.55,0,*61
1487984583.74,38519,7.88,72406.8,-15.13,-16.45,-16.45,0,*60
1487984584.99,38520,7.88,72408.8,-15.13,-16.55,-16.59,0,*66
1487984586.25,38521,7.88,72404.0,-15.15,-16.51,-16.51,0,*6D
1487984587.55,38522,7.88,72408.0,-15.13,-16.27,-16.17,0,*6B
1487984588.84,38523,7.88,72406.3,-15.13,-16.27,-16.13,0,*6E
1487984590.13,38524,7.88,72410.5,-15.13,-16.31,-16.27,0,*69
1487984591.37,38525,7.88,72406.8,-15.15,-16.51,-16.37,0,*69
1487984592.66,38526,7.88,72406.5,-15.13,-16.27,-16.27,0,*6C
1487984593.95,38527,7.88,72404.3,-15.13,-16.17,-16.27,0,*6E
1487984595.2,38528,7.88,72404.5,-15.13,-16.41,-16.41,0,*62
1487984596.42,38529,7.88,72406.3,-15.15,-16.45,-16.59,0,*68
1487984597.64,38530,7.88,72408.0,-15.15,-16.59,-16.59,0,*6D
1487984598.9,38531,7.88,72404.5,-15.15,-16.51,-16.51,0,*6C
1487984600.14,38532,7.88,72406.3,-15.15,-16.51,-16.45,0,*6A
1487984601.35,38533,7.88,72404.5,-15.15,-16.59,-16.45,0,*63
1487984602.59,38534,7.88,72406.0,-15.15,-16.51,-16.45,0,*6C
1487984603.82,38535,7.88,72406.0,-15.13,-16.45,-16.45,0,*6E
1487984605.05,38536,7.88,72404.3,-15.15,-16.59,-16.59,0,*6B
1487984606.27,38537,7.88,72406.8,-15.15,-16.59,-16.59,0,*6A
1487984607.52,38538,7.88,72404.5,-15.15,-16.65,-16.59,0,*6A
1487984608.77,38539,7.88,72410.5,-15.17,-16.51,-16.45,0,*63
1487984610.01,38540,7.88,72406.5,-15.17,-16.37,-16.37,0,*68
1487984611.25,38541,7.88,72404.8,-15.17,-16.37,-16.37,0,*69
1487984612.52,38542,7.88,72406.3,-15.19,-16.65,-16.69,0,*68
1487984613.77,38543,7.88,72404.5,-15.17,-16.75,-16.75,0,*6B
1487984615.01,38544,7.88,72410.0,-15.17,-16.79,-16.79,0,*6C
1487984616.28,38545,7.88,72404.3,-15.17,-16.79,-16.65,0,*60
1487984617.52,38546,7.88,72406.8,-15.19,-16.83,-16.69,0,*64
1487984618.76,38547,7.88,72408.0,-15.19,-16.79,-16.69,0,*60
1487984620.03,38548,7.88,72402.5,-15.19,-16.69,-16.65,0,*62
1487984621.29,38549,7.88,72404.0,-15.19,-16.65,-16.51,0,*68
1487984622.58,38550,7.88,72400.0,-15.17,-16.51,-16.51,0,*69
1487984623.84,38551,7.88,72406.3,-15.19,-16.51,-16.51,0,*66
1487984625.11,38552,7.88,72400.5,-15.19,-16.69,-16.69,0,*65
1487984626.35,38553,7.88,72398.5,-15.19,-16.79,-16.69,0,*65
1487984627.62,38554,7.88,72402.0,-15.19,-16.69,-16.69,0,*63
1487984628.86,38555,7.88,72398.8,-15.21,-16.93,-16.79,0,*6D
1487984630.11,38556,7.88,72398.3,-15.21,-16.83,-16.79,0,*6F
1487984631.36,38557,7.88,72402.3,-15.21,-16.83,-16.83,0,*6B
1487984632.6,38558,7.88,72402.3,-15.21,-16.93,-16.93,0,*64
1487984633.81,38559,7.88,72402.3,-15.23,-16.89,-16.83,0,*6D
1487984635.06,38560,7.88,72402.8,-15.21,-16.79,-16.79,0,*6F
1487984636.28,38561,7.88,72402.3,-15.23,-16.83,-16.89,0,*66
1487984637.5,38562,7.88,72400.3,-15.23,-16.83,-16.83,0,*6F
1487984638.74,38563,7.88,72402.8,-15.23,-16.59,-16.69,0,*6D
1487984639.96,38564,7.88,72404.0,-15.23,-16.55,-16.55,0,*69
1487984641.19,38565,7.88,72402.5,-15.23,-16.55,-16.55,0,*68
1487984642.45,38566,7.88,72400.8,-15.25,-16.69,-16.69,0,*6D
1487984643.7,38567,7.88,72406.5,-15.25,-16.69,-16.59,0,*6F
1487984644.91,38568,7.88,72402.8,-15.25,-16.55,-16.45,0,*62
1487984646.13,38569,7.88,72402.0,-15.25,-16.55,-16.45,0,*63
1487984647.39,38570,7.88,72402.0,-15.23,-16.69,-16.69,0,*6C
1487984648.62,38571,7.88,72400.5,-15.23,-16.59,-16.59,0,*6D
1487984649.84,38572,7.88,72396.0,-15.23,-16.55,-16.55,0,*6E
1487984651.06,38573,7.88,72396.8,-15.23,-16.55,-16.55,0,*6F
1487984652.28,38574,7.88,72392.8,-15.23,-16.55,-16.59,0,*64
1487984653.55,38575,7.88,72392.8,-15.23,-16.69,-16.69,0,*69
1487984654.8,38576,7.88,72392.5,-15.27,-16.75,-16.75,0,*6E
1487984656.06,38577,7.88,72390.0,-15.25,-16.69,-16.69,0,*6D
1487984657.35,38578,7.88,72388.8,-15.27,-16.65,-16.65,0,*60
1487984658.62,38579,7.88,72388.3,-15.25,-16.69,-16.69,0,*63
1487984659.84,38580,7.88,72394.0,-15.25,-16.55,-16.59,0,*69
1487984661.06,38581,7.88,72398.8,-15.25,-16.55,-16.55,0,*64
1487984662.33,38582,7.88,72398.0,-15.27,-16.65,-16.59,0,*6A
1487984663.6,38583,7.88,72394.8,-15.25,-16.69,-16.69,0,*66
1487984664.84,38584,7.88,72396.5,-15.27,-16.75,-16.75,0,*63
1487984666.11,38585,7.88,72396.5,-15.27,-16.65,-16.75,0,*63
1487984667.35,38586,7.88,72390.8,-15.27,-16.75,-16.75,0,*61
1487984668.62,38587,7.88,72390.0,-15.27,-16.75,-16.65,0,*61
1487984669.86,38588,7.88,72390.3,-15.27,-16.59,-16.55,0,*63
1487984671.12,38589,7.88,72386.8,-15.27,-16.75,-16.65,0,*6F
1487984672.39,38590,7.88,72386.3,-15.27,-16.65,-16.59,0,*69
1487984673.66,38591,7.88,72390.0,-15.27,-16.65,-16.59,0,*68
1487984674.91,38592,7.88,72384.0,-15.27,-16.45,-16.51,0,*61
1487984676.15,38593,7.88,72388.0,-15.25,-16.45,-16.51,0,*62
1487984677.39,38594,7.88,72388.0,-15.27,-16.37,-16.37,0,*62
1487984678.67,38595,7.88,72386.5,-15.27,-16.23,-16.23,0,*63
1487984679.95,38596,7.88,72386.3,-15.27,-16.23,-16.23,0,*60
1487984681.23,38597,7.88,72390.3,-15.27,-16.31,-16.23,0,*62
1487984682.52,38598,7.88,72384.8,-15.27,-16.31,-16.31,0,*6E
1487984683.8,38599,7.88,72390.0,-15.27,-16.23,-16.23,0,*6F
1487984685.08,38600,7.88,72392.3,-15.27,-16.31,-16.23,0,*6F
1487984686.36,38601,7.88,72392.8,-15.27,-16.31,-16.23,0,*6E
1487984687.64,38602,7.88,72392.8,-15.27,-16.31,-16.31,0,*6E
1487984688.88,38603,7.88,72394.5,-15.27,-16.37,-16.37,0,*6F
1487984690.16,38604,7.88,72394.8,-15.27,-16.31,-16.31,0,*68
1487984691.44,38605,7.88,72396.0,-15.27,-16.23,-16.31,0,*6A
1487984692.71,38606,7.88,72394.8,-15.25,-16.31,-16.17,0,*6C
1487984693.97,38607,7.88,72394.3,-15.27,-16.37,-16.31,0,*6D
1487984695.25,38608,7.88,72398.0,-15.27,-16.23,-16.23,0,*64
1487984696.53,38609,7.88,72396.8,-15.27,-16.31,-16.23,0,*66
1487984697.81,38610,7.88,72398.8,-15.27,-16.23,-16.31,0,*6E
1487984699.09,38611,7.88,72400.5,-15.27,-16.31,-16.31,0,*6C
1487984700.37,38612,7.88,72402.3,-15.27,-16.31,-16.31,0,*6F
1487984701.64,38613,7.88,72400.5,-15.25,-16.27,-16.27,0,*6C
1487984702.92,38614,7.88,72404.8,-15.27,-16.23,-16.23,0,*69
1487984704.2,38615,7.88,72404.0,-15.27,-16.31,-16.31,0,*68
1487984705.48,38616,7.88,72402.0,-15.27,-16.31,-16.23,0,*68
1487984706.75,38617,7.88,72404.5,-15.25,-16.23,-16.27,0,*6C
1487984708.01,38618,7.88,72402.3,-15.27,-16.37,-16.31,0,*63
1487984709.27,38619,7.88,72402.3,-15.27,-16.37,-16.31,0,*62
1487984710.55,38620,7.88,72404.8,-15.27,-16.31,-16.23,0,*6D
1487984711.81,38621,7.88,72406.8,-15.25,-16.17,-16.31,0,*69
1487984713.07,38622,7.88,72404.8,-15.25,-16.31,-16.31,0,*6E
1487984714.36,38623,7.88,72404.5,-15.27,-16.31,-16.23,0,*6E
1487984715.64,38624,7.88,72406.0,-15.27,-16.23,-16.23,0,*6A
1487984716.92,38625,7.88,72406.5,-15.27,-16.31,-16.31,0,*6B
1487984718.2,38626,7.88,72406.3,-15.27,-16.31,-16.31,0,*68
1487984719.48,38627,7.88,72406.0,-15.27,-16.31,-16.31,0,*69
1487984720.74,38628,7.88,72406.3,-15.27,-16.37,-16.23,0,*63
1487984722.02,38629,7.88,72406.8,-15.27,-16.23,-16.23,0,*67
1487984723.31,38630,7.88,72406.8,-15.27,-16.23,-16.23,0,*6F
1487984724.58,38631,7.88,72410.0,-15.25,-16.17,-16.17,0,*6C
1487984725.84,38632,7.88,72408.5,-15.25,-16.27,-16.27,0,*6F
1487984727.09,38633,7.88,72408.5,-15.25,-16.41,-16.31,0,*69
1487984728.32,38634,7.88,72412.0,-15.27,-16.37,-16.37,0,*6B
1487984729.56,38635,7.88,72410.3,-15.27,-16.37,-16.37,0,*6A
1487984730.82,38636,7.88,72408.5,-15.25,-16.31,-16.27,0,*6C
1487984732.1,38637,7.88,72414.3,-15.27,-16.31,-16.31,0,*68
1487984733.36,38638,7.88,72412.8,-15.25,-16.27,-16.27,0,*65
1487984734.64,38639,7.88,72414.8,-15.27,-16.31,-16.23,0,*65
1487984735.91,38640,7.88,72416.8,-15.25,-16.27,-16.31,0,*6D
1487984737.17,38641,7.88,72416.0,-15.25,-16.27,-16.27,0,*6B
1487984738.44,38642,7.88,72414.3,-15.25,-16.17,-16.27,0,*6B
1487984739.72,38643,7.88,72412.0,-15.27,-16.23,-16.23,0,*6B
1487984740.98,38644,7.88,72418.5,-15.25,-16.27,-16.31,0,*69
1487984742.25,38645,7.88,72416.0,-15.25,-16.17,-16.31,0,*6B
1487984743.52,38646,7.88,72418.0,-15.25,-16.17,-16.27,0,*6F
1487984744.8,38647,7.88,72418.0,-15.27,-16.31,-16.23,0,*6C
1487984746.08,38648,7.88,72420.8,-15.27,-16.23,-16.23,0,*60
1487984747.36,38649,7.88,72416.0,-15.27,-16.31,-16.23,0,*62
1487984748.65,38650,7.88,72418.0,-15.27,-16.23,-16.27,0,*6D
1487984749.93,38651,7.88,72416.8,-15.27,-16.31,-16.31,0,*68
1487984751.19,38652,7.88,72420.0,-15.25,-16.27,-16.27,0,*69
1487984752.47,38653,7.88,72422.0,-15.27,-16.31,-16.23,0,*69
1487984753.74,38654,7.88,72422.5,-15.25,-16.27,-16.27,0,*6F
1487984755.01,38655,7.88,72420.0,-15.25,-16.17,-16.17,0,*6E
1487984756.27,38656,7.88,72418.3,-15.25,-16.27,-16.27,0,*6D
1487984757.55,38657,7.88,72422.8,-15.27,-16.31,-16.31,0,*6E
1487984758.81,38658,7.88,72416.3,-15.25,-16.31,-16.31,0,*63
1487984760.04,38659,7.88,72416.0,-15.27,-16.45,-16.45,0,*60
1487984761.3,38660,7.88,72418.5,-15.27,-16.45,-16.51,0,*6F
1487984762.56,38661,7.88,72422.3,-15.27,-16.45,-16.65,0,*69
1487984763.8,38662,7.88,72420.3,-15.25,-16.45,-16.69,0,*64
1487984765.07,38663,7.88,72420.0,-15.27,-16.51,-16.75,0,*6F
1487984766.31,38664,7.88,72416.3,-15.27,-16.59,-16.79,0,*6C
1487984767.52,38665,7.88,72422.5,-15.25,-16.55,-16.89,0,*6C
1487984768.82,38666,7.88,72416.0,-15.27,-16.65,-17.03,0,*6D
1487984770.08,38667,7.88,72416.8,-15.27,-16.75,-17.03,0,*6D
1487984771.34,38668,7.88,72414.5,-15.27,-16.89,-17.25,0,*65
1487984772.6,38669,7.88,72414.3,-15.27,-16.93,-17.41,0,*6D
1487984773.88,38670,7.88,72416.3,-15.27,-17.03,-17.55,0,*68
1487984775.17,38671,7.88,72410.3,-15.27,-17.07,-17.63,0,*68
1487984776.44,38672,7.88,72408.8,-15.29,-17.17,-17.63,0,*64
1487984777.71,38673,7.88,72406.8,-15.25,-17.21,-17.63,0,*6C
1487984778.97,38674,7.88,72404.3,-15.25,-17.03,-17.59,0,*62
1487984780.26,38675,7.88,72400.3,-15.27,-17.07,-17.55,0,*69
1487984781.55,38676,7.88,72404.3,-15.27,-17.25,-17.63,0,*6F
1487984782.81,38677,7.88,72402.5,-15.31,-17.25,-17.73,0,*68
1487984784.03,38678,7.88,72404.8,-15.29,-17.35,-17.69,0,*64
1487984785.28,38679,7.88,72404.8,-15.29,-17.41,-17.83,0,*62
1487984786.53,38680,7.88,72404.8,-15.29,-17.55,-17.83,0,*61
1487984787.77,38681,7.88,72404.8,-15.29,-17.49,-17.97,0,*68
1487984789.02,38682,7.88,72404.3,-15.29,-17.69,-17.97,0,*69
1487984790.29,38683,7.88,72408.3,-15.29,-17.97,-17.97,0,*69
1487984791.56,38684,7.88,72408.0,-15.29,-17.97,-17.97,0,*6E
1487984792.86,38685,7.88,72406.0,-15.31,-18.01,-17.79,0,*66
1487984794.1,38686,7.88,72412.8,-15.29,-17.97,-17.69,0,*6D
1487984795.32,38687,7.88,72414.8,-15.29,-18.17,-17.69,0,*6B
1487984796.57,38688,7.88,72404.8,-15.29,-18.31,-17.83,0,*64
1487984797.84,38689,7.88,72408.0,-15.31,-18.49,-17.97,0,*66
1487984799.09,38690,7.88,72404.5,-15.29,-18.31,-17.69,0,*69
1487984800.33,38691,7.88,72410.0,-15.29,-18.45,-17.55,0,*64
1487984801.54,38692,7.88,72404.3,-15.29,-18.17,-17.49,0,*6D
1487984802.78,38693,7.88,72406.8,-15.29,-18.11,-17.45,0,*66
1487984804.02,38694,7.88,72410.3,-15.31,-18.11,-17.31,0,*6B
1487984805.28,38695,7.88,72404.8,-15.31,-18.01,-17.31,0,*6B
1487984806.54,38696,7.88,72406.3,-15.29,-17.93,-17.25,0,*60
1487984807.84,38697,7.88,72402.5,-15.31,-17.97,-17.11,0,*6B
1487984809.14,38698,7.88,72400.8,-15.31,-17.97,-17.21,0,*67
1487984810.43,38699,7.88,72398.0,-15.31,-17.97,-17.25,0,*62
1487984811.72,38700,7.88,72406.0,-15.31,-17.59,-17.11,0,*66
1487984812.99,38701,7.88,72406.0,-15.35,-17.45,-16.93,0,*65
1487984814.28,38702,7.88,72402.3,-15.31,-17.55,-17.11,0,*68
1487984815.54,38703,7.88,72396.3,-15.31,-17.69,-17.25,0,*61
1487984816.83,38704,7.88,72396.3,-15.31,-17.55,-17.21,0,*6D
1487984818.1,38705,7.88,72398.0,-15.35,-17.31,-17.07,0,*6E
1487984819.37,38706,7.88,72394.8,-15.35,-17.21,-16.97,0,*64
1487984820.61,38707,7.88,72396.8,-15.37,-17.17,-16.89,0,*6D
1487984821.87,38708,7.88,72398.0,-15.35,-16.97,-16.69,0,*67
1487984823.14,38709,7.88,72402.3,-15.35,-16.79,-16.69,0,*66
1487984824.36,38710,7.88,72396.3,-15.37,-16.89,-16.83,0,*67
1487984825.57,38711,7.88,72394.3,-15.37,-16.97,-16.97,0,*6C
1487984826.78,38712,7.88,72392.5,-15.37,-16.89,-16.89,0,*6F
1487984828.01,38713,7.88,72392.3,-15.37,-16.83,-16.75,0,*67
1487984829.25,38714,7.88,72394.3,-15.35,-16.79,-16.79,0,*6B
1487984830.54,38715,7.88,72394.5,-15.35,-16.69,-16.69,0,*6A
1487984831.76,38716,7.88,72394.5,-15.37,-16.59,-16.59,0,*6B
1487984832.98,38717,7.88,72394.0,-15.37,-16.59,-16.59,0,*6A
1487984834.23,38718,7.88,72392.5,-15.37,-16.55,-16.69,0,*6A
1487984835.52,38719,7.88,72390.3,-15.35,-16.65,-16.65,0,*66
1487984836.77,38720,7.88,72396.5,-15.37,-16.69,-16.75,0,*63
1487984838.04,38721,7.88,72394.3,-15.35,-16.65,-16.79,0,*60
1487984839.26,38722,7.88,72394.5,-15.37,-16.83,-16.83,0,*6C
1487984840.47,38723,7.88,72396.3,-15.37,-16.83,-16.97,0,*68
1487984841.77,38724,7.88,72392.8,-15.35,-17.07,-17.07,0,*68
1487984843.04,38725,7.88,72394.5,-15.37,-17.11,-17.11,0,*6B
1487984844.3,38726,7.88,72398.5,-15.37,-17.11,-17.11,0,*68
1487984845.57,38727,7.88,72388.0,-15.37,-17.11,-17.11,0,*69
1487984846.78,38728,7.88,72384.8,-15.37,-16.97,-16.89,0,*69
1487984847.99,38729,7.88,72388.5,-15.37,-16.89,-16.89,0,*67
1487984849.22,38730,7.88,72396.8,-15.37,-16.75,-16.75,0,*6F
1487984850.49,38731,7.88,72388.8,-15.37,-16.69,-16.69,0,*6E
1487984851.75,38732,7.88,72388.3,-15.37,-16.69,-16.69,0,*6D
1487984853.0,38733,7.88,72390.8,-15.37,-16.59,-16.69,0,*6F
1487984854.22,38734,7.88,72392.3,-15.37,-16.59,-16.59,0,*6B
1487984855.44,38735,7.88,72392.5,-15.37,-16.75,-16.89,0,*69
1487984856.65,38736,7.88,72388.0,-15.37,-16.75,-16.89,0,*6A
1487984857.87,38737,7.88,72392.5,-15.37,-16.75,-16.83,0,*61
1487984859.12,38738,7.88,72392.0,-15.37,-16.69,-16.75,0,*6A
1487984860.33,38739,7.88,72400.0,-15.37,-16.75,-16.89,0,*65
1487984861.6,38740,7.88,72398.8,-15.39,-16.69,-16.83,0,*62
1487984862.84,38741,7.88,72396.0,-15.39,-16.89,-16.97,0,*68
1487984864.05,38742,7.88,72394.8,-15.37,-16.89,-16.97,0,*65
1487984865.27,38743,7.88,72398.3,-15.37,-16.89,-16.89,0,*6B
1487984866.51,38744,7.88,72398.0,-15.37,-16.69,-16.75,0,*61
1487984867.76,38745,7.88,72400.8,-15.37,-16.69,-16.75,0,*60
1487984869.0,38746,7.88,72402.5,-15.39,-16.83,-16.83,0,*60
1487984870.24,38747,7.88,72398.3,-15.39,-16.97,-16.97,0,*61
1487984871.54,38748,7.88,72402.8,-15.39,-17.03,-17.03,0,*6E
1487984872.81,38749,7.88,72398.8,-15.41,-17.07,-17.07,0,*60
1487984874.11,38750,7.88,72400.0,-15.39,-17.03,-17.03,0,*67
1487984875.4,38751,7.88,72396.8,-15.39,-17.11,-17.11,0,*66
1487984876.68,38752,7.88,72398.5,-15.39,-17.11,-17.11,0,*65
1487984877.97,38753,7.88,72396.5,-15.39,-17.11,-17.11,0,*64
1487984879.24,38754,7.88,72392.8,-15.41,-17.17,-17.17,0,*6C
1487984880.54,38755,7.88,72396.0,-15.39,-17.03,-17.11,0,*61
1487984881.75,38756,7.88,72392.8,-15.41,-16.93,-16.93,0,*6E
1487984882.96,38757,7.88,72394.8,-15.41,-16.93,-16.93,0,*6F
1487984884.17,38758,7.88,72394.3,-15.41,-16.89,-16.93,0,*6B
1487984885.38,38759,7.88,72390.3,-15.41,-16.93,-16.93,0,*61
1487984886.62,38760,7.88,72390.0,-15.39,-16.83,-16.97,0,*61
1487984887.83,38761,7.88,72386.3,-15.41,-16.93,-16.93,0,*6A
1487984889.05,38762,7.88,72390.3,-15.41,-16.79,-16.89,0,*66
1487984890.27,38763,7.88,72390.5,-15.41,-16.79,-16.79,0,*68
1487984891.49,38764,7.88,72390.0,-15.41,-16.75,-16.79,0,*63
1487984892.77,38765,7.88,72388.0,-15.41,-16.65,-16.65,0,*6E
1487984894.01,38766,7.88,72394.5,-15.39,-16.59,-16.59,0,*62
1487984895.24,38767,7.88,72392.3,-15.41,-16.75,-16.75,0,*6C
1487984896.49,38768,7.88,72396.5,-15.41,-16.65,-16.75,0,*62
1487984897.74,38769,7.88,72400.0,-15.39,-16.55,-16.59,0,*61
1487984898.97,38770,7.88,72398.8,-15.41,-16.59,-16.75,0,*64
1487984900.19,38771,7.88,72394.3,-15.41,-16.59,-16.75,0,*65
1487984901.41,38772,7.88,72394.3,-15.41,-16.79,-16.89,0,*67
1487984902.65,38773,7.88,72394.5,-15.39,-16.83,-16.83,0,*66